Racine, WI

1:53 PM CDT on July 20, 2017 (GMT -0500)
Batten

Weather History for KRAC - August, 2013

Change the Weather History Date:

Thursday, August 1, 2013

  Actual Average Record
Temperature  
Mean Temperature 70 °F -  
Max Temperature 79 °F 78 °F 96 °F (2006)
Min Temperature 62 °F 62 °F 52 °F (1976)
Cooling Degree Days 5    
Growing Degree Days 20 (Base 50)    
Moisture  
Dew Point 56 °F    
Average Humidity 66    
Maximum Humidity 93    
Minimum Humidity 39    
Precipitation  
Precipitation 0.01 in - - ()
Sea Level Pressure  
Sea Level Pressure 29.97 in    
Wind  
Wind Speed 7 mph (West)    
Max Wind Speed 14 mph    
Max Gust Speed 18 mph    
Visibility 10 miles    
Events      
Averages and records for this station are not official NWS values.
T = Trace of Precipitation, MM = Missing Value Source: NWS Daily Summary

Daily Weather History Graph

Daily Weather History Graph

Search for Another Location

Airport or City:

Trip Planner

Search our weather history database for the weather conditions in past years. The results will help you decide how hot, cold, wet, or windy it might be!

Date:

Astronomy

Aug. 01, 2013 Rise Set
Actual Time 5:42 AM CDT 8:11 PM CDT
Civil Twilight 5:10 AM CDT 8:43 PM CDT
Nautical Twilight 4:31 AM CDT 9:23 PM CDT
Astronomical Twilight 3:46 AM CDT 10:07 PM CDT
Moon 1:18 AM CDT (8/1) 4:20 PM CDT (8/1)
Length of Visible Light 15h 32m
Length of Day
14h 28m
Waning Crescent, 23% of the Moon is Illuminated
Aug 1
Waning Crescent
Aug 6
New
Aug 14
First Quarter
Aug 20
Full
Aug 28
Last Quarter

Hourly Weather History & Observations

Time (CDT) Temp. Dew Point Humidity Pressure Visibility Wind Dir Wind Speed Gust Speed Precip Events Conditions
12:53 AM 63.0 °F 61.0 °F 93% 29.98 in 10.0 mi West 5.8 mph - N/A   Clear
1:53 AM 63.0 °F 59.0 °F 87% 29.96 in 10.0 mi West 5.8 mph - 0.01 in   Clear
2:53 AM 62.1 °F 59.0 °F 90% 29.96 in 10.0 mi West 5.8 mph - N/A   Partly Cloudy
3:53 AM 62.1 °F 59.0 °F 90% 29.96 in 10.0 mi West 5.8 mph - N/A   Clear
4:53 AM 62.1 °F 59.0 °F 90% 29.96 in 10.0 mi West 6.9 mph - N/A   Clear
5:53 AM 62.1 °F 59.0 °F 90% 29.96 in 10.0 mi WNW 5.8 mph - N/A   Clear
6:53 AM 63.0 °F 60.1 °F 90% 29.98 in 10.0 mi West 4.6 mph - N/A   Clear
7:53 AM 66.0 °F 61.0 °F 84% 29.98 in 10.0 mi West 5.8 mph - N/A   Clear
8:53 AM 69.1 °F 61.0 °F 75% 29.98 in 10.0 mi WNW 9.2 mph - N/A   Clear
9:53 AM 72.0 °F 60.1 °F 66% 29.98 in 10.0 mi WNW 8.1 mph - N/A   Clear
10:53 AM 75.0 °F 57.9 °F 55% 29.98 in 10.0 mi NW 8.1 mph - N/A   Clear
11:53 AM 77.0 °F 52.0 °F 42% 29.99 in 10.0 mi WNW 13.8 mph 18.4 mph N/A   Partly Cloudy
12:53 PM 75.9 °F 54.0 °F 46% 29.99 in 10.0 mi WNW 11.5 mph - N/A   Scattered Clouds
1:53 PM 75.9 °F 53.1 °F 45% 29.99 in 10.0 mi NW 10.4 mph - N/A   Clear
2:53 PM 78.1 °F 52.0 °F 40% 29.99 in 10.0 mi WNW 11.5 mph - N/A   Clear
3:53 PM 78.1 °F 51.1 °F 39% 29.98 in 10.0 mi West 11.5 mph - N/A   Partly Cloudy
4:53 PM 78.1 °F 53.1 °F 42% 29.96 in 10.0 mi West 9.2 mph - N/A   Partly Cloudy
5:53 PM 75.9 °F 52.0 °F 43% 29.95 in 10.0 mi WNW 6.9 mph - N/A   Clear
6:53 PM 75.0 °F 52.0 °F 44% 29.95 in 10.0 mi West 5.8 mph - N/A   Clear
7:53 PM 72.0 °F 54.0 °F 53% 29.95 in 10.0 mi Calm Calm - N/A   Clear
8:53 PM 68.0 °F 55.0 °F 63% 29.95 in 10.0 mi SW 3.5 mph - N/A   Clear
9:53 PM 66.9 °F 55.0 °F 66% 29.96 in 10.0 mi SW 4.6 mph - N/A   Clear
10:53 PM 64.9 °F 55.0 °F 70% 29.95 in 10.0 mi WSW 3.5 mph - N/A   Clear
11:53 PM 64.9 °F 55.0 °F 70% 29.94 in 10.0 mi WSW 5.8 mph - N/A   Clear